CZ-2C DEB

Satellite information

Favourite Embed

Satellite Type and Status

DEBRISIN ORBIT

Key statistics

Satellite CZ-2C DEB at a glance.

Uptime

4809

Days in orbit

Revolutions

≈ 15.2

Per day

Orbit

SSO

Sun Synchronous Orbit

Inclination

97.6

Latest

Satellite identification and parameters

Extended collection of information and parameters for CZ-2C DEB.

Object identification

Identified? True

Debris? True

Object name: CZ-2C DEB

International designator: 2012-056D

Object number (NORAD): 38863

Object ID (CCSDS): 38863

Country: PEOPLES REPUBLIC OF CHINA (PRC)

Current information (Y/N): Y

RCS size: LARGE

Orbital parameters

Period: 94.903 minutes

Inclination: 97.5707 deg

SMA: 6892.042 km

Apoapsis: 520.684 km

Periapsis: 507.131 km

RAAN: 51.8521 deg

Eccentricy: 0.00098323

Argument of periapsis: 352.833 deg

Mean anomaly: 7.2761 deg

Mean motion: 15.17332796 rev/day

Mean motion (dot): 0.00016574 rev/day2

B* drag term: 0.00083209406 1/REarth

Two-line elements (TLE)

Creation date: Dec. 14, 2025, 3:07 a.m.

Reference frame: TEME

Reference center: EARTH

Epoch: Dec. 13, 2025, 3:25 p.m. UTC

TLE line 0: 0 CZ-2C DEB

TLE line 1: 1 38863U 12056D 25347.64243823 .00016574 00000-0 83209-3 0 9993

TLE line 2: 2 38863 97.5707 51.8521 0009832 352.8330 7.2761 15.17332796715092

Live tracking on map

Real-time ground track for satellite CZ-2C DEB.

In-orbit conjunctions

A list of the most updated potential collisions computed for object CZ-2C DEB.

Target Orbit TCA Probability of collision Miss distance Type
ELECTRON KICK STAGE R/B SSO 2025-02-14 04:14:16 0.0001056684 385.0 (m) ROCKET BODY

Associated space launch

CZ-2C DEB was lifted into orbit during the mission ‘Long March 2C/SMA | Shijian 9A & Shijian 9B’, on board a Long March 2 space rocket.

The launch took place on Oct. 14, 2012, 3:25 a.m. from Launch Complex 9.

For more information about the launch, click the button.

Launch to space Long March 2C/SMA | Shijian 9A & Shijian 9B
Long March 2C/SMA | Shijian 9A & Shijian 9B

Agency: N/A

Status: Launch Successful

Launch date: Oct. 14, 2012, 3:25 a.m. UTC

Rocket: Long March 2

Launch pad: Launch Complex 9

Location: Taiyuan Satellite Launch Center, People's Republic of China

...

Latest news about this satellite

There are no fresh news available about this satellite. Check back as we update our databases every day.


Newsletter sign-up

Weekly statistics, charts and insights to help you stay on top of the space industry.